Location: Byhalia Creek
(34.8270°N, 89.8040°W)
Time: 09:02:19
(UTC+00:00)

Cosmos 1745 Rocket - Pass Details

Date: 22 April 2026
Orbit: 951 x 998 km, 83.0° (Epoch: 15 May)

Event Time Altitude Azimuth Distance (km) Brightness Sun altitude
Rises 10:10:19 0° 354° (N) 3,643 7.3 -13.9°
Reaches altitude 10° 10:12:49 10° 355° (N) 2,689 6.6 -13.5°
Maximum altitude 10:18:59 87° 83° (E) 957 4.0 -12.3°
Drops below altitude 10° 10:25:05 10° 174° (S) 2,665 6.1 -11.2°
Sets 10:27:33 0° 175° (S) 3,608 6.8 -10.7°
